Location: Tierra del Sol
(32.6128°N, 116.3319°W)
Time: 17:08:37
(UTC-07:00)

Tiangong 2 - Pass Details

Date: 13 October 2017
Orbit: 388 x 392 km, 42.8° (Epoch: 16 October)

Event Time Altitude Azimuth Distance (km) Brightness Sun altitude
Exits shadow 05:58:12 - 322° (NW) 1,523 3.7 -11.3°
Reaches altitude 10° 05:58:39 10° 329° (NNW) 1,420 3.6 -11.2°
Maximum altitude 06:00:18 13° 359° (N) 1,244 3.6 -10.8°
Drops below altitude 10° 06:01:56 10° 30° (NNE) 1,421 4.3 -10.5°
Sets 06:04:52 0° 60° (ENE) 2,277 6.0 -9.9°
